{"data":{"norad_id":66337,"intl_designator":"2025-253U","name":"STARLINK-34783","alt_names":[],"object_type":"PAYLOAD","status":"ACTIVE","operator":null,"country":"US","launch_date":"2025-11-06","launch_site_code":"AFETR","launch_vehicle":null,"mission":null,"orbit_class":"UNKNOWN","rcs_meters":null,"size_class":null,"mass_kg":null,"dimensions":null,"purposes":["comms"],"wikipedia_slug":null,"has_3d_model":false,"image_url":null,"decayed_at":null,"tle_current":{"epoch":"2026-09-20T04:13:07.456800Z","epoch_age_seconds":121424,"freshness":"FRESH","line1":"1 66337U 25253U   26263.17578075  .00009010  00000+0  33643-3 0  9992","line2":"2 66337  42.9986 194.5792 0001090 265.5228  94.5499 15.27589124 49986","mean_motion":15.27589124,"eccentricity":0.000109,"inclination_deg":42.9986,"raan_deg":194.5792,"arg_perigee_deg":265.5228,"mean_anomaly_deg":94.5499,"bstar":0.00033643,"rev_number":4998,"period_min":94.266185676247,"perigee_km":482.27390933075,"apogee_km":483.76964194384,"semimajor_km":6861.1587756373,"source":"CELESTRAK","updated_at":"2026-09-21T09:00:35.876671Z"}}}